Tracking 29892 objects as of 21-Nov-2024
HD Live streaming from Space Station
objects crossing your sky now

STARLINK-31916

Track STARLINK-31916 now!
10-day predictions
STARLINK-31916 is classified as:


NORAD ID: 59795
Int'l Code: 2024-093P
Perigee: 450.3 km
Apogee: 452.1 km
Inclination: 43.0 °
Period: 93.5 minutes
Semi major axis: 6822 km
RCS: Unknown
Launch date: May 18, 2024
Source: United States (US)
Launch site: AIR FORCE EASTERN TEST RANGE (AFETR)
Your satellite tracking list
Your tracking list is empty




NASA's NSSDC Master Catalog

Two Line Element Set (TLE):
1 59795U 24093P   24325.62608157  .00004178  00000-0  10722-3 0  9999
2 59795  43.0040  17.4072 0001338 295.6628  64.4091 15.40703266 30069
Source of the keplerian elements: AFSPC